Groundwater Watch Latest News...



Klamath County, Oregon
Click site symbol to open information pop-up. Click Station ID in pop-up for information and data.
Map loading slowly? Try a different browser. Web browser performance varies significantly.
Explanation of symbols on the state map.

Map generated 9/29/2020 1:53:17 PM
Groundwater Watch
Help Page
     

Network wells depicted on the Klamath County, OR location map
Note: Color shading in the table below indicates multiple wells that plot as a single point on the state location map above.
Note: BLS = Water Level in Feet Below Land Surface, RVD = Water Level referenced to a vertical datum
Map
Index
Site ID Site NameMost Recent
Measurement
DateWell
Depth
Local Aquifer
1 420013121531801 41.00S/08.00E-16BDC01 114.90 BLS 7/7/2020  169     
2 420120121355401 41.00S/10.00E-12BBC01  18.04 BLS 7/7/2020  295     
3 420125121360601 41.00S/10.00E-11AAA02  76.23 BLS 7/9/2020  1050     
4 420129121355901 41.00S/10.00E-02DDD0179    BLS 7/9/2020  1088     
5 420246121541401 40.00S/08.00E-32BDD01 168.41 BLS 7/7/2020  230     
6 420318121312201 40.00S/11.00E-28DDD01 311.89 BLS 9/28/2020   335.00   Basalt
7 420348121453601 40.00S/09.00E-28ADB01  48.53 BLS 7/9/2020  128      Nonmarine Sedimentary Rocks
8 420351121403801 40.00S/10.00E-29BCB01  81.25 BLS 7/9/2020  913     
9 420352121505901 40.00S/08.00E-26BBD01   6.68 BLS 7/9/2020  186     
10 420614121453801 40.00S/09.00E-09DAB01  13.33 BLS 7/9/2020  182     
11 420616121454701 40.00S/09.00E-09ACD01  53.98 BLS 7/9/2020  821     
12 420724121404001 40.00S/10.00E-05BBC01  47.01 BLS 7/9/2020  95     
13 420740121482901 39.00S/09.00E-31CDC01  61.32 BLS 7/9/2020  454     
14 420743121483401 39.00S/09.00E-31CDB01  87.51 BLS 7/9/2020  117     
15 420758121490301 39.00S/08.00E-36DAB01  48.80 BLS 7/9/2020  91     
16 420759121545101 39.00S/08.00E-31DAA01 156.13 BLS 7/9/2020  364     
17 420957121410401 39.00S/10.00E-19ACA02   9.22 BLS 7/9/2020  2006     
18 421102121415601 39.00S/09.00E-13AAA01  15.82 BLS 7/7/2020  155     
19 421126121452001 38.00S/09.00E-28DDC01  70.05 BLS 7/9/2020  333     
20 421228121421901 39.00S/09.00E-01ACD01  74.28 BLS 7/7/2020  1000     
21 421541121474201 38.00S/09.00E-17CBC01 208.98 BLS 7/9/2020  418     
22 421707120525401 38.00S/15.00E-12DAD01 197.80 BLS 7/8/2020  413     
23 422222120575601 37.00S/15.00E-08DBC01  49.84 BLS 7/8/2020  102     
24 422542121072001 36.00S/13.00E-24DCC01 109.90 BLS 7/8/2020   429.5   
25 422553122084001 36.00S/06.00E-17CDC01  46.41 BLS 7/8/2020  85     
26 422735122062302 36.00S/06.00E-03CCD02   8.06 BLS 7/8/2020  85     
27 423003121152601 35.00S/12.00E-26DCD01  24.04 BLS 7/8/2020  500     
28 423035121331401 35.00S/10.00E-29ACC01  25.76 BLS 7/8/2020  350      Nonmarine Sedimentary Rocks
29 423245121405001 35.00S/09.00E-08CCC01 119.52 BLS 7/8/2020  385     
30 423331121531001 35.00S/07.00E-09BAA01 106.94 BLS 7/8/2020  320     
31 423622121401001 34.00S/09.00E-20DCA01  66.51 BLS 7/8/2020  135     
32 423623121174001 34.00S/12.00E-21DAC01 264.30 BLS 7/8/2020  504     
33 423739121514101 34.00S/07.00E-15ADB02  -9.7  BLS 7/8/2020  780     
34 424225121594201 33.00S/07.50E-16DDA01  -3.86 BLS 7/8/2020  226     
35 424517122031501 32.00S/06.00E-36DAA01  33.44 BLS 9/27/2020    
36 425804121344701 30.00S/10.00E-18CDA01  97.29 BLS 7/6/2020    
37 430029121552101 30.00S/07.00E-06AAA01 199.52 BLS 7/10/2020     Mazama Pumice
38 430649121305201 28.00S/10.00E-27DBD01 391.40 BLS 7/6/2020     Basalt
39 430837121472801 28S/08E-17DBD 147.27 BLS 7/6/2020    
40 431337121575701 27.00S/06.50E-14AAB01 201.39 BLS 7/10/2020    


Springs depicted on the Klamath County , OR location map
Map
Index
Site ID Site NameMost Recent
Measurement
Date
SP1 11503000 ANNIE SPRING NEAR CRATER LAKE, OR1.48 CFS 9/28/2020


   


*References to non-Department of the Interior (DOI) products do not constitute an endorsement by the DOI.

*References to non-Department of the Interior (DOI) products do not constitute an endorsement by the DOI.

Accessibility FOIA Privacy Policies and Notices

Take Pride in America logo USA.gov logo U.S. Department of the Interior | U.S. Geological Survey
URL: https://groundwaterwatch.usgs.gov/countymap.asp
Page Contact Information: Contact the GroundWater Watch Support Team
Last update: Tuesday, September 24, 2019 at 09:55

Page displayed in 10,057.780 seconds.